| time (UTC) | temp C | wind direction | speed KPH | gust KPH | rain 1hr cm | rain 24hr cm | rain mn cm | humidity % | barometer mb |
| 20260507161006 | 18 | 47 | 8.0 | 12.9 | 0.00 | 0.00 | 0.00 | 85 | 1016.7 |
| 20260507160508 | 18 | 31 | 8.0 | 11.3 | 0.00 | 0.00 | 0.00 | 85 | 1016.5 |
| 20260507155508 | 18 | 32 | 8.0 | 12.9 | 0.00 | 0.00 | 0.00 | 85 | 1016.3 |
| 20260507155007 | 18 | 11 | 8.0 | 12.9 | 0.00 | 0.00 | 0.00 | 85 | 1016.3 |
| 20260507154524 | 18 | 44 | 9.7 | 12.9 | 0.00 | 0.00 | 0.00 | 85 | 1016.3 |
| 20260507154011 | 18 | 32 | 11.3 | 12.9 | 0.00 | 0.00 | 0.00 | 85 | 1016.2 |
| 20260507153505 | 18 | 41 | 9.7 | 12.9 | 0.00 | 0.00 | 0.00 | 85 | 1016.2 |
| 20260507153014 | 18 | 32 | 9.7 | 12.9 | 0.00 | 0.00 | 0.00 | 85 | 1016.2 |
| 20260507152504 | 18 | 36 | 9.7 | 12.9 | 0.00 | 0.00 | 0.00 | 85 | 1016.1 |
| 20260507152007 | 18 | 38 | 11.3 | 12.9 | 0.00 | 0.00 | 0.00 | 85 | 1016.1 |
| 20260507151007 | 18 | 37 | 8.0 | 12.9 | 0.00 | 0.00 | 0.00 | 84 | 1016.1 |
| 20260507150511 | 18 | 35 | 9.7 | 12.9 | 0.00 | 0.00 | 0.00 | 84 | 1016.1 |
| 20260507145513 | 18 | 34 | 11.3 | 14.5 | 0.00 | 0.00 | 0.00 | 85 | 1016.1 |
| 20260507145007 | 18 | 25 | 11.3 | 14.5 | 0.00 | 0.00 | 0.00 | 85 | 1016.0 |
| 20260507144536 | 18 | 19 | 8.0 | 11.3 | 0.00 | 0.00 | 0.00 | 85 | 1016.0 |
| 20260507144009 | 18 | 27 | 8.0 | 11.3 | 0.00 | 0.00 | 0.00 | 85 | 1016.0 |
| 20260507143506 | 18 | 72 | 4.8 | 11.3 | 0.00 | 0.00 | 0.00 | 85 | 1016.0 |
| 20260507143026 | 18 | 35 | 8.0 | 11.3 | 0.00 | 0.00 | 0.00 | 85 | 1016.0 |
| 20260507142509 | 19 | 23 | 8.0 | 11.3 | 0.00 | 0.00 | 0.00 | 85 | 1015.9 |
| 20260507142012 | 19 | 36 | 8.0 | 11.3 | 0.00 | 0.00 | 0.00 | 85 | 1016.0 |
| 20260507141517 | 19 | 41 | 8.0 | 11.3 | 0.00 | 0.00 | 0.00 | 85 | 1016.0 |
| 20260507141008 | 19 | 18 | 8.0 | 14.5 | 0.00 | 0.00 | 0.00 | 85 | 1016.1 |
| 20260507140508 | 19 | 26 | 9.7 | 14.5 | 0.00 | 0.00 | 0.00 | 85 | 1016.1 |
| 20260507140019 | 19 | 32 | 11.3 | 14.5 | 0.00 | 0.00 | 0.00 | 85 | 1016.1 |
| 20260507135505 | 19 | 25 | 9.7 | 14.5 | 0.00 | 0.00 | 0.00 | 85 | 1016.1 |
| 20260507135006 | 19 | 12 | 8.0 | 12.9 | 0.00 | 0.00 | 0.00 | 85 | 1016.0 |
| 20260507134522 | 19 | 40 | 9.7 | 12.9 | 0.00 | 0.00 | 0.00 | 85 | 1015.9 |
| 20260507134010 | 19 | 56 | 6.4 | 12.9 | 0.00 | 0.00 | 0.00 | 85 | 1015.8 |
| 20260507133507 | 19 | 34 | 8.0 | 12.9 | 0.00 | 0.00 | 0.00 | 85 | 1015.7 |
| 20260507133026 | 19 | 31 | 9.7 | 12.9 | 0.00 | 0.00 | 0.00 | 85 | 1015.8 |
| 20260507132510 | 19 | 35 | 8.0 | 11.3 | 0.00 | 0.00 | 0.00 | 85 | 1015.8 |
| 20260507132011 | 19 | 32 | 8.0 | 11.3 | 0.00 | 0.00 | 0.00 | 85 | 1015.8 |
| 20260507131514 | 19 | 33 | 8.0 | 11.3 | 0.00 | 0.00 | 0.00 | 85 | 1015.9 |
| 20260507131009 | 19 | 42 | 6.4 | 12.9 | 0.00 | 0.00 | 0.00 | 85 | 1016.0 |
| 20260507130508 | 19 | 23 | 8.0 | 12.9 | 0.00 | 0.00 | 0.00 | 85 | 1016.1 |
| 20260507130018 | 19 | 37 | 6.4 | 9.7 | 0.00 | 0.00 | 0.00 | 85 | 1016.0 |
| 20260507124003 | 20 | 33 | 8.0 | 9.7 | 0.00 | 0.00 | 0.00 | 84 | 1016.2 |
| 20260507123503 | 20 | 11 | 6.4 | 12.9 | 0.00 | 0.00 | 0.00 | 84 | 1016.1 |
| 20260507123009 | 20 | 80 | 8.0 | 12.9 | 0.00 | 0.00 | 0.00 | 84 | 1016.2 |
| 20260507122504 | 20 | 356 | 8.0 | 11.3 | 0.00 | 0.00 | 0.00 | 84 | 1016.2 |
| 20260507122006 | 20 | 47 | 6.4 | 12.9 | 0.00 | 0.00 | 0.00 | 84 | 1016.3 |
| 20260507121007 | 20 | 1 | 8.0 | 11.3 | 0.00 | 0.00 | 0.00 | 84 | 1016.3 |
| 20260507120505 | 20 | 32 | 6.4 | 8.0 | 0.00 | 0.00 | 0.00 | 84 | 1016.4 |
| 20260507115506 | 20 | 37 | 6.4 | 11.3 | 0.00 | 0.00 | 0.00 | 84 | 1016.5 |
| 20260507115010 | 20 | 33 | 8.0 | 11.3 | 0.00 | 0.00 | 0.00 | 84 | 1016.6 |
| 20260507114521 | 20 | 51 | 6.4 | 9.7 | 0.00 | 0.00 | 0.00 | 84 | 1016.6 |
| 20260507114003 | 20 | 48 | 4.8 | 8.0 | 0.00 | 0.00 | 0.00 | 84 | 1016.6 |
| 20260507113502 | 20 | 4 | 3.2 | 8.0 | 0.00 | 0.00 | 0.00 | 84 | 1016.7 |
| 20260507112506 | 20 | 27 | 4.8 | 6.4 | 0.00 | 0.00 | 0.00 | 84 | 1016.8 |
| 20260507112004 | 20 | 39 | 3.2 | 8.0 | 0.00 | 0.00 | 0.00 | 84 | 1016.8 |
| 20260507111513 | 20 | 39 | 3.2 | 8.0 | 0.00 | 0.00 | 0.00 | 84 | 1016.8 |
| 20260507111004 | 20 | 19 | 4.8 | 8.0 | 0.00 | 0.00 | 0.00 | 84 | 1016.9 |
| 20260507110503 | 20 | 56 | 4.8 | 8.0 | 0.00 | 0.00 | 0.00 | 84 | 1016.9 |
| 20260507110018 | 21 | 53 | 1.6 | 3.2 | 0.00 | 0.00 | 0.00 | 83 | 1017.0 |
| 20260507105505 | 21 | 51 | 1.6 | 4.8 | 0.00 | 0.00 | 0.00 | 83 | 1017.0 |
| 20260507105006 | 21 | 36 | 1.6 | 6.4 | 0.00 | 0.00 | 0.00 | 82 | 1017.1 |
| 20260507104521 | 21 | 70 | 1.6 | 6.4 | 0.00 | 0.00 | 0.00 | 82 | 1017.1 |
| 20260507104009 | 21 | 27 | 1.6 | 6.4 | 0.00 | 0.00 | 0.00 | 82 | 1017.2 |
| 20260507103508 | 21 | 50 | 0.0 | 4.8 | 0.00 | 0.00 | 0.00 | 81 | 1017.2 |
| 20260507103005 | 21 | 23 | 1.6 | 4.8 | 0.00 | 0.00 | 0.00 | 81 | 1017.2 |
| 20260507102503 | 21 | 38 | 0.0 | 0.0 | 0.00 | 0.00 | 0.00 | 81 | 1017.3 |
| 20260507102006 | 21 | 29 | 0.0 | 3.2 | 0.00 | 0.00 | 0.00 | 81 | 1017.3 |
| 20260507101507 | 21 | 30 | 0.0 | 3.2 | 0.00 | 0.00 | 0.00 | 81 | 1017.3 |
| 20260507101004 | 21 | 40 | 1.6 | 3.2 | 0.00 | 0.00 | 0.00 | 80 | 1017.3 |
| 20260507100507 | 22 | 48 | 0.0 | 3.2 | 0.00 | 0.00 | 0.00 | 80 | 1017.3 |
| 20260507100019 | 22 | 50 | 1.6 | 3.2 | 0.00 | 0.00 | 0.00 | 79 | 1017.3 |
| 20260507095505 | 22 | 60 | 0.0 | 0.0 | 0.00 | 0.00 | 0.00 | 79 | 1017.3 |
| 20260507095008 | 22 | 50 | 0.0 | 0.0 | 0.00 | 0.00 | 0.00 | 78 | 1017.4 |
| 20260507094524 | 22 | 56 | 0.0 | 4.8 | 0.00 | 0.00 | 0.00 | 78 | 1017.4 |
| 20260507094007 | 22 | 67 | 0.0 | 6.4 | 0.00 | 0.00 | 0.00 | 77 | 1017.4 |
| 20260507093507 | 22 | 34 | 4.8 | 6.4 | 0.00 | 0.00 | 0.00 | 77 | 1017.3 |
| 20260507093024 | 22 | 31 | 3.2 | 6.4 | 0.00 | 0.00 | 0.00 | 77 | 1017.3 |
| 20260507092508 | 22 | 15 | 3.2 | 4.8 | 0.00 | 0.00 | 0.00 | 76 | 1017.3 |
| 20260507092006 | 22 | 14 | 0.0 | 0.0 | 0.00 | 0.00 | 0.00 | 75 | 1017.3 |
| 20260507091506 | 23 | 30 | 0.0 | 0.0 | 0.00 | 0.00 | 0.00 | 75 | 1017.3 |
| 20260507091003 | 23 | 353 | 0.0 | 0.0 | 0.00 | 0.00 | 0.00 | 74 | 1017.3 |
| 20260507090504 | 23 | 287 | 0.0 | 0.0 | 0.00 | 0.00 | 0.00 | 74 | 1017.4 |
| 20260507090017 | 23 | 285 | 0.0 | 0.0 | 0.00 | 0.00 | 0.00 | 74 | 1017.5 |
| 20260507085505 | 23 | 285 | 0.0 | 0.0 | 0.00 | 0.00 | 0.00 | 74 | 1017.5 |
| 20260507085004 | 23 | 300 | 0.0 | 0.0 | 0.00 | 0.00 | 0.00 | 74 | 1017.5 |
| 20260507084522 | 23 | 302 | 0.0 | 0.0 | 0.00 | 0.00 | 0.00 | 74 | 1017.5 |
| 20260507084007 | 23 | 326 | 0.0 | 0.0 | 0.00 | 0.00 | 0.00 | 74 | 1017.5 |
| 20260507083506 | 23 | 273 | 0.0 | 0.0 | 0.00 | 0.00 | 0.00 | 74 | 1017.5 |
| 20260507083020 | 23 | 278 | 0.0 | 0.0 | 0.00 | 0.00 | 0.00 | 74 | 1017.6 |
| 20260507082010 | 23 | 277 | 0.0 | 0.0 | 0.00 | 0.00 | 0.00 | 73 | 1017.5 |
| 20260507081526 | 23 | 297 | 0.0 | 3.2 | 0.00 | 0.00 | 0.00 | 73 | 1017.5 |
| 20260507081006 | 23 | 270 | 0.0 | 6.4 | 0.00 | 0.00 | 0.00 | 73 | 1017.5 |
| 20260507080506 | 23 | 269 | 1.6 | 6.4 | 0.00 | 0.00 | 0.00 | 73 | 1017.4 |
| 20260507075504 | 23 | 307 | 0.0 | 0.0 | 0.00 | 0.00 | 0.00 | 72 | 1017.4 |
| 20260507075004 | 23 | 255 | 0.0 | 0.0 | 0.00 | 0.00 | 0.00 | 71 | 1017.4 |
| 20260507074007 | 23 | 301 | 0.0 | 6.4 | 0.00 | 0.00 | 0.00 | 70 | 1017.2 |
| 20260507073507 | 23 | 276 | 0.0 | 6.4 | 0.00 | 0.00 | 0.00 | 70 | 1017.2 |
| 20260507073019 | 23 | 256 | 0.0 | 4.8 | 0.00 | 0.00 | 0.00 | 70 | 1017.1 |
| 20260507072506 | 23 | 314 | 0.0 | 0.0 | 0.00 | 0.00 | 0.00 | 70 | 1017.1 |
| 20260507072008 | 23 | 292 | 0.0 | 0.0 | 0.00 | 0.00 | 0.00 | 69 | 1017.1 |
| 20260507071519 | 23 | 309 | 0.0 | 0.0 | 0.00 | 0.00 | 0.00 | 69 | 1017.0 |
| 20260507071010 | 23 | 288 | 0.0 | 0.0 | 0.00 | 0.00 | 0.00 | 70 | 1017.0 |
| 20260507070510 | 23 | 306 | 0.0 | 0.0 | 0.00 | 0.00 | 0.00 | 69 | 1016.8 |
| 20260507070026 | 23 | 304 | 0.0 | 0.0 | 0.00 | 0.00 | 0.00 | 71 | 1016.8 |
| 20260507065503 | 23 | 359 | 0.0 | 0.0 | 0.00 | 0.00 | 0.00 | 70 | 1016.7 |
| 20260507065004 | 23 | 288 | 0.0 | 0.0 | 0.00 | 0.00 | 0.00 | 71 | 1016.6 |
| 20260507064512 | 23 | 308 | 0.0 | 0.0 | 0.00 | 0.00 | 0.00 | 71 | 1016.5 |
| 20260507064005 | 24 | 297 | 0.0 | 0.0 | 0.00 | 0.00 | 0.00 | 71 | 1016.5 |
| 20260507063505 | 24 | 279 | 0.0 | 0.0 | 0.00 | 0.00 | 0.00 | 70 | 1016.4 |
| 20260507062506 | 24 | 265 | 0.0 | 0.0 | 0.00 | 0.00 | 0.00 | 72 | 1016.2 |
| 20260507062007 | 24 | 22 | 0.0 | 0.0 | 0.00 | 0.00 | 0.00 | 73 | 1016.2 |
| 20260507061521 | 23 | 22 | 0.0 | 0.0 | 0.00 | 0.00 | 0.00 | 73 | 1016.1 |
| 20260507061009 | 23 | 22 | 0.0 | 0.0 | 0.00 | 0.00 | 0.00 | 72 | 1016.0 |
| 20260507060507 | 24 | 13 | 0.0 | 0.0 | 0.00 | 0.00 | 0.00 | 71 | 1016.0 |
| 20260507060033 | 23 | 13 | 0.0 | 0.0 | 0.00 | 0.00 | 0.00 | 73 | 1015.9 |
| 20260507055510 | 23 | 27 | 0.0 | 0.0 | 0.00 | 0.00 | 0.00 | 73 | 1015.8 |
| 20260507055008 | 24 | 36 | 0.0 | 0.0 | 0.00 | 0.00 | 0.00 | 71 | 1015.9 |
| 20260507054508 | 23 | 2 | 0.0 | 0.0 | 0.00 | 0.00 | 0.00 | 71 | 1015.8 |
| 20260507054004 | 23 | 34 | 0.0 | 0.0 | 0.00 | 0.00 | 0.00 | 70 | 1015.7 |
| 20260507053505 | 23 | 28 | 0.0 | 0.0 | 0.00 | 0.00 | 0.00 | 70 | 1015.7 |
| 20260507053017 | 24 | 18 | 0.0 | 3.2 | 0.00 | 0.00 | 0.00 | 71 | 1015.6 |
| 20260507052506 | 24 | 7 | 0.0 | 4.8 | 0.00 | 0.00 | 0.00 | 71 | 1015.5 |
| 20260507052010 | 23 | 21 | 1.6 | 6.4 | 0.00 | 0.00 | 0.00 | 71 | 1015.4 |
| 20260507051520 | 24 | 36 | 3.2 | 6.4 | 0.00 | 0.00 | 0.00 | 71 | 1015.3 |
| 20260507051008 | 24 | 60 | 4.8 | 6.4 | 0.00 | 0.00 | 0.00 | 70 | 1015.3 |
| 20260507050505 | 24 | 63 | 4.8 | 6.4 | 0.00 | 0.00 | 0.00 | 69 | 1015.3 |
| 20260507050024 | 25 | 85 | 3.2 | 4.8 | 0.00 | 0.00 | 0.00 | 67 | 1015.2 |
| 20260507045506 | 25 | 84 | 1.6 | 6.4 | 0.00 | 0.00 | 0.00 | 68 | 1015.2 |
| 20260507045006 | 25 | 102 | 1.6 | 6.4 | 0.00 | 0.00 | 0.00 | 68 | 1015.2 |
| 20260507044544 | 25 | 104 | 3.2 | 6.4 | 0.00 | 0.00 | 0.00 | 68 | 1015.1 |
| 20260507044010 | 25 | 102 | 4.8 | 8.0 | 0.00 | 0.00 | 0.00 | 67 | 1015.0 |
| 20260507043502 | 25 | 106 | 4.8 | 9.7 | 0.00 | 0.00 | 0.00 | 67 | 1014.9 |
| 20260507043012 | 25 | 94 | 4.8 | 9.7 | 0.00 | 0.00 | 0.00 | 67 | 1014.7 |
| 20260507042504 | 26 | 106 | 3.2 | 11.3 | 0.00 | 0.00 | 0.00 | 66 | 1014.6 |
| 20260507042010 | 25 | 95 | 6.4 | 11.3 | 0.00 | 0.00 | 0.00 | 67 | 1014.6 |
| 20260507041517 | 26 | 110 | 6.4 | 11.3 | 0.00 | 0.00 | 0.00 | 67 | 1014.6 |
| 20260507041005 | 26 | 120 | 6.4 | 11.3 | 0.00 | 0.00 | 0.00 | 67 | 1014.5 |
| 20260507040506 | 26 | 103 | 4.8 | 11.3 | 0.00 | 0.00 | 0.00 | 67 | 1014.5 |
| 20260507040031 | 26 | 103 | 6.4 | 9.7 | 0.00 | 0.00 | 0.00 | 67 | 1014.4 |
| 20260507035507 | 26 | 93 | 6.4 | 11.3 | 0.00 | 0.00 | 0.00 | 67 | 1014.4 |
| 20260507034523 | 26 | 127 | 4.8 | 11.3 | 0.00 | 0.00 | 0.00 | 67 | 1014.3 |
| 20260507034007 | 26 | 123 | 3.2 | 11.3 | 0.00 | 0.00 | 0.00 | 67 | 1014.2 |
| 20260507033508 | 26 | 121 | 6.4 | 11.3 | 0.00 | 0.00 | 0.00 | 65 | 1014.2 |
| 20260507033024 | 27 | 131 | 6.4 | 11.3 | 0.00 | 0.00 | 0.00 | 63 | 1014.2 |
| 20260507032511 | 28 | 82 | 6.4 | 11.3 | 0.00 | 0.00 | 0.00 | 60 | 1014.1 |
| 20260507032005 | 28 | 124 | 6.4 | 11.3 | 0.00 | 0.00 | 0.00 | 60 | 1014.1 |
| 20260507031517 | 29 | 109 | 4.8 | 12.9 | 0.00 | 0.00 | 0.00 | 60 | 1014.1 |
| 20260507031006 | 28 | 117 | 8.0 | 12.9 | 0.00 | 0.00 | 0.00 | 60 | 1014.0 |
| 20260507030509 | 27 | 133 | 6.4 | 12.9 | 0.00 | 0.00 | 0.00 | 63 | 1014.1 |
| 20260507025007 | 27 | 68 | 4.8 | 14.5 | 0.00 | 0.00 | 0.00 | 62 | 1014.1 |
| 20260507024010 | 27 | 113 | 6.4 | 17.7 | 0.00 | 0.00 | 0.00 | 61 | 1014.0 |
| 20260507023506 | 27 | 108 | 6.4 | 17.7 | 0.00 | 0.00 | 0.00 | 60 | 1013.9 |
| 20260507023028 | 27 | 98 | 8.0 | 16.1 | 0.00 | 0.00 | 0.00 | 61 | 1014.0 |
| 20260507022513 | 28 | 146 | 6.4 | 16.1 | 0.00 | 0.00 | 0.00 | 61 | 1014.1 |
| 20260507022015 | 27 | 116 | 6.4 | 14.5 | 0.00 | 0.00 | 0.00 | 62 | 1014.2 |
| 20260507021528 | 27 | 109 | 8.0 | 14.5 | 0.00 | 0.00 | 0.00 | 62 | 1014.2 |
| 20260507021009 | 27 | 101 | 9.7 | 12.9 | 0.00 | 0.00 | 0.00 | 61 | 1014.2 |
| 20260507020022 | 28 | 131 | 4.8 | 11.3 | 0.00 | 0.00 | 0.00 | 60 | 1014.3 |
| 20260507015506 | 28 | 115 | 6.4 | 14.5 | 0.00 | 0.00 | 0.00 | 59 | 1014.3 |
| 20260507015008 | 28 | 78 | 6.4 | 14.5 | 0.00 | 0.00 | 0.00 | 59 | 1014.3 |
| 20260507014006 | 28 | 104 | 4.8 | 14.5 | 0.00 | 0.00 | 0.00 | 58 | 1014.3 |
| 20260507012011 | 30 | 141 | 3.2 | 11.3 | 0.00 | 0.00 | 0.00 | 54 | 1014.4 |
| 20260507011524 | 29 | 173 | 4.8 | 11.3 | 0.00 | 0.00 | 0.00 | 55 | 1014.5 |
| 20260507011012 | 30 | 96 | 4.8 | 11.3 | 0.00 | 0.00 | 0.00 | 56 | 1014.5 |
| 20260507010509 | 30 | 132 | 3.2 | 11.3 | 0.00 | 0.00 | 0.00 | 55 | 1014.7 |
| 20260507010014 | 29 | 127 | 4.8 | 11.3 | 0.00 | 0.00 | 0.00 | 56 | 1014.8 |
| 20260507005503 | 29 | 157 | 6.4 | 11.3 | 0.00 | 0.00 | 0.00 | 58 | 1014.8 |
| 20260507005008 | 30 | 124 | 3.2 | 11.3 | 0.00 | 0.00 | 0.00 | 57 | 1015.0 |
| 20260507003028 | 29 | 167 | 3.2 | 11.3 | 0.00 | 0.00 | 0.00 | 60 | 1015.2 |
| 20260507002506 | 29 | 125 | 4.8 | 11.3 | 0.00 | 0.00 | 0.00 | 58 | 1015.3 |
| 20260507001520 | 29 | 208 | 4.8 | 9.7 | 0.00 | 0.00 | 0.00 | 58 | 1015.2 |
| 20260507001004 | 29 | 163 | 4.8 | 9.7 | 0.00 | 0.00 | 0.00 | 58 | 1015.3 |
| 20260507000504 | 30 | 86 | 3.2 | 8.0 | 0.00 | 0.00 | 0.00 | 57 | 1015.3 |
| 20260507000014 | 30 | 176 | 3.2 | 8.0 | 0.00 | 0.00 | 0.00 | 57 | 1015.3 |
| 20260506235504 | 30 | 186 | 3.2 | 8.0 | 0.00 | 0.00 | 0.00 | 55 | 1015.4 |
| 20260506235007 | 30 | 134 | 3.2 | 8.0 | 0.00 | 0.00 | 0.00 | 55 | 1015.4 |
| 20260506234005 | 30 | 136 | 4.8 | 12.9 | 0.00 | 0.00 | 0.00 | 56 | 1015.5 |
| 20260506233506 | 30 | 142 | 1.6 | 9.7 | 0.00 | 0.00 | 0.00 | 57 | 1015.4 |
| 20260506232008 | 29 | 151 | 3.2 | 9.7 | 0.00 | 0.00 | 0.00 | 56 | 1015.6 |
| 20260506231529 | 29 | 120 | 3.2 | 11.3 | 0.00 | 0.00 | 0.00 | 58 | 1015.6 |
| 20260506230502 | 29 | 146 | 3.2 | 11.3 | 0.00 | 0.00 | 0.00 | 59 | 1015.7 |
| 20260506230009 | 29 | 128 | 4.8 | 12.9 | 0.00 | 0.00 | 0.00 | 59 | 1015.7 |
| 20260506225503 | 30 | 157 | 6.4 | 12.9 | 0.00 | 0.00 | 0.00 | 59 | 1015.8 |
| 20260506224515 | 29 | 160 | 3.2 | 8.0 | 0.00 | 0.00 | 0.00 | 60 | 1015.8 |
| 20260506224006 | 29 | 131 | 4.8 | 9.7 | 0.00 | 0.00 | 0.00 | 58 | 1015.8 |
| 20260506223506 | 29 | 171 | 1.6 | 12.9 | 0.00 | 0.00 | 0.00 | 61 | 1015.8 |
| 20260506223019 | 28 | 194 | 6.4 | 12.9 | 0.00 | 0.00 | 0.00 | 60 | 1015.9 |
| 20260506222509 | 30 | 120 | 1.6 | 9.7 | 0.00 | 0.00 | 0.00 | 61 | 1015.8 |
| 20260506222008 | 30 | 105 | 3.2 | 12.9 | 0.00 | 0.00 | 0.00 | 60 | 1015.9 |
| 20260506221525 | 30 | 200 | 6.4 | 12.9 | 0.00 | 0.00 | 0.00 | 58 | 1015.9 |
| 20260506221010 | 29 | 158 | 4.8 | 11.3 | 0.00 | 0.00 | 0.00 | 59 | 1015.9 |
| 20260506220507 | 30 | 198 | 3.2 | 11.3 | 0.00 | 0.00 | 0.00 | 59 | 1015.9 |
| 20260506220026 | 29 | 165 | 1.6 | 12.9 | 0.00 | 0.00 | 0.00 | 61 | 1015.9 |
| 20260506215503 | 28 | 150 | 6.4 | 12.9 | 0.00 | 0.00 | 0.00 | 60 | 1015.9 |
| 20260506215003 | 28 | 163 | 3.2 | 12.9 | 0.00 | 0.00 | 0.00 | 63 | 1015.9 |
| 20260506214512 | 28 | 172 | 3.2 | 12.9 | 0.00 | 0.00 | 0.00 | 63 | 1016.0 |
| 20260506214010 | 28 | 202 | 4.8 | 11.3 | 0.00 | 0.00 | 0.00 | 59 | 1016.0 |
| 20260506213508 | 29 | 221 | 1.6 | 9.7 | 0.00 | 0.00 | 0.00 | 60 | 1016.0 |
| 20260506213018 | 28 | 179 | 3.2 | 12.9 | 0.00 | 0.00 | 0.00 | 61 | 1016.0 |
| 20260506212504 | 27 | 177 | 4.8 | 14.5 | 0.00 | 0.00 | 0.00 | 61 | 1016.0 |
| 20260506212011 | 27 | 224 | 8.0 | 14.5 | 0.00 | 0.00 | 0.00 | 61 | 1016.1 |
| 20260506211523 | 28 | 190 | 3.2 | 12.9 | 0.00 | 0.00 | 0.00 | 63 | 1016.0 |
| 20260506211003 | 28 | 276 | 3.2 | 12.9 | 0.00 | 0.00 | 0.00 | 62 | 1016.0 |
| 20260506210502 | 27 | 179 | 4.8 | 12.9 | 0.00 | 0.00 | 0.00 | 64 | 1016.0 |
| 20260506210025 | 27 | 209 | 3.2 | 12.9 | 0.00 | 0.00 | 0.00 | 64 | 1016.0 |
| 20260506205503 | 27 | 195 | 4.8 | 12.9 | 0.00 | 0.00 | 0.00 | 62 | 1016.0 |
| 20260506205014 | 28 | 213 | 3.2 | 14.5 | 0.00 | 0.00 | 0.00 | 64 | 1016.1 |
| 20260506204515 | 27 | 201 | 4.8 | 14.5 | 0.00 | 0.00 | 0.00 | 65 | 1016.1 |
| 20260506204005 | 27 | 223 | 4.8 | 14.5 | 0.00 | 0.00 | 0.00 | 67 | 1016.2 |
| 20260506203504 | 27 | 206 | 6.4 | 16.1 | 0.00 | 0.00 | 0.00 | 66 | 1016.2 |
| 20260506203016 | 27 | 192 | 8.0 | 14.5 | 0.00 | 0.00 | 0.00 | 64 | 1016.2 |
| 20260506202013 | 27 | 191 | 4.8 | 11.3 | 0.00 | 0.00 | 0.00 | 65 | 1016.1 |
| 20260506201520 | 27 | 146 | 6.4 | 11.3 | 0.00 | 0.00 | 0.00 | 65 | 1016.1 |
| 20260506201008 | 27 | 183 | 4.8 | 9.7 | 0.00 | 0.00 | 0.00 | 66 | 1016.1 |
| 20260506200510 | 27 | 166 | 6.4 | 9.7 | 0.00 | 0.00 | 0.00 | 65 | 1016.1 |
| 20260506195505 | 27 | 193 | 3.2 | 8.0 | 0.00 | 0.00 | 0.00 | 64 | 1016.0 |
| 20260506195002 | 27 | 188 | 4.8 | 8.0 | 0.00 | 0.00 | 0.00 | 65 | 1016.0 |
| 20260506194511 | 26 | 195 | 3.2 | 9.7 | 0.00 | 0.00 | 0.00 | 66 | 1016.0 |
| 20260506194005 | 26 | 259 | 3.2 | 9.7 | 0.00 | 0.00 | 0.00 | 69 | 1015.9 |
| 20260506193505 | 26 | 162 | 3.2 | 8.0 | 0.00 | 0.00 | 0.00 | 68 | 1015.9 |
| 20260506193015 | 26 | 211 | 3.2 | 6.4 | 0.00 | 0.00 | 0.00 | 69 | 1015.9 |
| 20260506192506 | 26 | 173 | 1.6 | 6.4 | 0.00 | 0.00 | 0.00 | 69 | 1015.9 |
| 20260506192006 | 26 | 210 | 3.2 | 6.4 | 0.00 | 0.00 | 0.00 | 69 | 1015.9 |
| 20260506191518 | 25 | 195 | 0.0 | 6.4 | 0.00 | 0.00 | 0.00 | 70 | 1015.8 |
| 20260506191006 | 25 | 211 | 1.6 | 4.8 | 0.00 | 0.00 | 0.00 | 70 | 1015.8 |
| 20260506190025 | 24 | 54 | 0.0 | 0.0 | 0.00 | 0.00 | 0.00 | 71 | 1015.7 |
| 20260506185506 | 23 | 113 | 0.0 | 0.0 | 0.00 | 0.00 | 0.00 | 71 | 1015.6 |
| 20260506185002 | 23 | 67 | 0.0 | 1.6 | 0.00 | 0.00 | 0.00 | 72 | 1015.6 |
| 20260506184508 | 23 | 53 | 0.0 | 1.6 | 0.00 | 0.00 | 0.00 | 72 | 1015.6 |
| 20260506184005 | 23 | 32 | 0.0 | 3.2 | 0.00 | 0.00 | 0.00 | 71 | 1015.6 |
| 20260506183505 | 23 | 74 | 1.6 | 6.4 | 0.00 | 0.00 | 0.00 | 73 | 1015.6 |
| 20260506183013 | 22 | 57 | 0.0 | 6.4 | 0.00 | 0.00 | 0.00 | 74 | 1015.6 |
| 20260506182505 | 22 | 34 | 3.2 | 8.0 | 0.00 | 0.00 | 0.00 | 73 | 1015.6 |
| 20260506181516 | 21 | 31 | 6.4 | 8.0 | 0.00 | 0.00 | 0.00 | 72 | 1015.7 |
| 20260506181008 | 21 | 18 | 6.4 | 9.7 | 0.00 | 0.00 | 0.00 | 73 | 1015.6 |
| 20260506180503 | 21 | 25 | 8.0 | 9.7 | 0.00 | 0.00 | 0.00 | 72 | 1015.5 |
| 20260506180004 | 21 | 23 | 8.0 | 11.3 | 0.00 | 0.00 | 0.00 | 72 | 1015.5 |
| 20260506175504 | 20 | 51 | 6.4 | 11.3 | 0.00 | 0.00 | 0.00 | 72 | 1015.4 |
| 20260506175002 | 20 | 18 | 9.7 | 11.3 | 0.00 | 0.00 | 0.00 | 72 | 1015.3 |
| 20260506173502 | 20 | 9 | 11.3 | 14.5 | 0.00 | 0.00 | 0.00 | 73 | 1015.3 |
| 20260506173013 | 20 | 15 | 9.7 | 12.9 | 0.00 | 0.00 | 0.00 | 73 | 1015.3 |
| 20260506172504 | 20 | 22 | 9.7 | 12.9 | 0.00 | 0.00 | 0.00 | 73 | 1015.2 |
| 20260506172008 | 19 | 20 | 11.3 | 12.9 | 0.00 | 0.00 | 0.00 | 73 | 1015.2 |
| 20260506171515 | 19 | 18 | 9.7 | 14.5 | 0.00 | 0.00 | 0.00 | 74 | 1015.2 |
| 20260506171006 | 19 | 30 | 11.3 | 14.5 | 0.00 | 0.00 | 0.00 | 75 | 1015.2 |
| 20260506170505 | 18 | 21 | 9.7 | 14.5 | 0.00 | 0.00 | 0.00 | 74 | 1015.1 |
| 20260506170018 | 18 | 27 | 12.9 | 14.5 | 0.00 | 0.00 | 0.00 | 75 | 1015.0 |
| 20260506165503 | 18 | 21 | 11.3 | 14.5 | 0.00 | 0.00 | 0.00 | 76 | 1015.0 |
| 20260506165003 | 18 | 22 | 9.7 | 12.9 | 0.00 | 0.00 | 0.00 | 75 | 1014.9 |
| 20260506164503 | 18 | 33 | 6.4 | 14.5 | 0.00 | 0.00 | 0.00 | 75 | 1014.8 |
| 20260506164006 | 18 | 25 | 11.3 | 14.5 | 0.00 | 0.00 | 0.00 | 75 | 1014.7 |
| 20260506163502 | 18 | 20 | 9.7 | 12.9 | 0.00 | 0.00 | 0.00 | 74 | 1014.7 |
| 20260506163010 | 18 | 47 | 8.0 | 12.9 | 0.00 | 0.00 | 0.00 | 73 | 1014.5 |
| 20260506162502 | 18 | 15 | 9.7 | 12.9 | 0.00 | 0.00 | 0.00 | 74 | 1014.5 |
| 20260506161512 | 18 | 20 | 6.4 | 14.5 | 0.00 | 0.00 | 0.00 | 73 | 1014.4 |